Weather History for KBKL - July, 2012

Change the Weather History Date:

Saturday, July 7, 2012

  Actual Average (WUND) Record (WUND)
Temperature  
Mean Temperature 84 °F -  
Max Temperature 91 °F - - (-1)
Min Temperature 75 °F - - (-1)
Cooling Degree Days 18    
Growing Degree Days 34 (Base 50)    
Moisture  
Dew Point 72 °F    
Average Humidity 69    
Maximum Humidity 77    
Minimum Humidity 59    
Precipitation  
Precipitation 0.00 in - - ()
Sea Level Pressure  
Sea Level Pressure 29.89 in    
Wind  
Wind Speed 9 mph (West)    
Max Wind Speed 17 mph    
Max Gust Speed 22 mph    
Visibility 10 miles    
Events      
Averages and records for this station are not official NWS values.
T = Trace of Precipitation, MM = Missing Value Source: NWS Daily Summary

Daily Weather History Graph

Daily Weather History Graph

Search for Another Location

Airport or City:

Trip Planner

Search our weather history database for the weather conditions in past years. The results will help you decide how hot, cold, wet, or windy it might be!

Date:

Astronomy

Jul. 07, 2012 Rise Set
Actual Time 6:00 AM EDT 9:02 PM EDT
Civil Twilight 5:26 AM EDT 9:36 PM EDT
Nautical Twilight 4:44 AM EDT 10:18 PM EDT
Astronomical Twilight 3:53 AM EDT 11:08 PM EDT
Moon 11:17 PM EDT (7/7) 10:27 AM EDT (7/7)
Length of Visible Light 16h 09m
Length of Day
15h 02m
Waning Gibbous, 82% of the Moon is Illuminated
Jul 7
Waning Gibbous
Jul 10
Last Quarter
Jul 19
New
Jul 26
First Quarter
Aug 1
Full

Hourly Weather History & Observations

Time (EDT) Temp. Heat Index Dew Point Humidity Pressure Visibility Wind Dir Wind Speed Gust Speed Precip Events Conditions
12:53 AM 82.0 °F 84.9 °F 68.0 °F 62% 29.91 in 10.0 mi SSE 6.9 mph - N/A   Clear
1:53 AM 81.0 °F 83.8 °F 68.0 °F 65% 29.89 in 10.0 mi SSE 9.2 mph - N/A   Clear
2:53 AM 80.1 °F 82.7 °F 68.0 °F 67% 29.90 in 10.0 mi South 6.9 mph - N/A   Clear
3:53 AM 80.1 °F 82.7 °F 68.0 °F 67% 29.89 in 10.0 mi SSE 8.1 mph - N/A   Clear
4:53 AM 80.1 °F 82.7 °F 68.0 °F 67% 29.88 in 10.0 mi South 11.5 mph - N/A   Clear
5:53 AM 80.1 °F 82.9 °F 69.1 °F 69% 29.89 in 10.0 mi South 9.2 mph - N/A   Clear
6:53 AM 84.0 °F 87.8 °F 69.1 °F 61% 29.89 in 10.0 mi SSW 15.0 mph 20.7 mph N/A   Clear
7:53 AM 84.0 °F 89.0 °F 71.1 °F 65% 29.89 in 10.0 mi SW 10.4 mph - N/A   Clear
8:53 AM 88.0 °F 94.7 °F 72.0 °F 59% 29.89 in 10.0 mi WSW 10.4 mph 21.9 mph N/A   Clear
9:53 AM 89.1 °F 98.0 °F 73.9 °F 61% 29.89 in 10.0 mi WSW 5.8 mph - N/A   Clear
10:53 AM 90.0 °F 100.2 °F 75.0 °F 61% 29.88 in 10.0 mi WSW 9.2 mph - N/A   Clear
11:53 AM 89.1 °F 101.4 °F 77.0 °F 67% 29.89 in 10.0 mi NNW 6.9 mph - N/A   Clear
12:53 PM 89.1 °F 101.4 °F 77.0 °F 67% 29.89 in 8.0 mi West 11.5 mph - N/A   Clear
1:53 PM 88.0 °F 103.1 °F 79.0 °F 75% 29.88 in 8.0 mi WNW 8.1 mph - N/A   Scattered Clouds
2:53 PM 89.1 °F 103.2 °F 78.1 °F 70% 29.88 in 10.0 mi West 10.4 mph - N/A   Scattered Clouds
3:53 PM 88.0 °F 103.1 °F 79.0 °F 75% 29.87 in 9.0 mi NW 4.6 mph - N/A   Clear
4:53 PM 88.0 °F 101.3 °F 78.1 °F 72% 29.86 in 9.0 mi Calm Calm - N/A   Clear
5:53 PM 86.0 °F 98.3 °F 78.1 °F 77% 29.86 in 8.0 mi NNE 9.2 mph - N/A   Clear
6:53 PM 84.9 °F 92.1 °F 73.9 °F 69% 29.87 in 10.0 mi NNE 6.9 mph - N/A   Clear
7:53 PM 82.9 °F 89.4 °F 73.9 °F 74% 29.88 in 10.0 mi NNE 12.7 mph - N/A   Clear
8:53 PM 79.0 °F - 71.1 °F 77% 29.90 in 10.0 mi NNE 17.3 mph - N/A   Clear
9:53 PM 78.1 °F - 68.0 °F 71% 29.92 in 10.0 mi NNE 13.8 mph - N/A   Clear
10:53 PM 77.0 °F - 66.9 °F 71% 29.93 in 10.0 mi NNE 13.8 mph - N/A   Clear
11:53 PM 75.9 °F - 68.0 °F 76% 29.94 in 10.0 mi North 12.7 mph - N/A   Partly Cloudy